AirNav   ProFlight Series 2 Aviation Headset
 
 390 users online  

44M Tenkiller Lake Airpark
Cookson, Oklahoma, USA

GOING TO COOKSON?


FAA INFORMATION EFFECTIVE 08 OCTOBER 2020

Location

FAA Identifier: 44M
Lat/Long: 35-42-17.9000N 094-56-10.1000W
35-42.298333N 094-56.168333W
35.7049722,-94.9361389
(estimated)
Elevation: 877 ft. / 267 m (estimated)
Variation: 05E (1985)
From city: 1 mile SW of COOKSON, OK
Time zone: UTC -5 (UTC -6 during Standard Time)
Zip code: 74427

Airport Operations

Airport use: Open to the public
Activation date: 11/1970
Control tower: no
ARTCC: MEMPHIS CENTER
FSS: MC ALESTER FLIGHT SERVICE STATION
NOTAMs facility: MLC (NOTAM-D service available)
Attendance: IRREG
Wind indicator: yes
Segmented circle: yes
Lights: ACTVT LIRL RWY 05/23 DUSK-DAWN; VASI RWY 05 & 23 - 122.8.
Beacon: white-green (lighted land airport)
ROTG BCN OTS INDEFLY. Operates sunset to sunrise.

Airport Communications

CTAF: 122.9
WX AWOS-3 at TQH (14 nm N): 118.425 (918-453-2729)
WX AWOS-3 at JSV (17 nm S): 118.475 (918-775-4136)

Nearby radio navigation aids

VOR radial/distance  VOR name  Freq  Var
FSMr293/37.6FORT SMITH VORTAC110.4007E

 
NDB name  Hdg/Dist  Freq  Var  ID
SILOAM SPRINGS213/36.328404ESLG ... .-.. --.

Airport Services

Fuel available: 100LL
FOR FUEL OR AFTER HOURS ASSISTANCE CALL 918-457-4095 OR 918-931-0601.
Parking: hangars and tiedowns
Airframe service: NONE
Powerplant service: NONE
Bottled oxygen: NONE
Bulk oxygen: NONE

Runway Information

Runway 5/23

Dimensions: 2600 x 75 ft. / 792 x 23 m
Surface: turf, in good condition
Runway edge lights: low intensity
RUNWAY 5  RUNWAY 23
Latitude: 35-42.179678N35-42.417857N
Longitude: 094-56.386320W094-55.949370W
Elevation: 820.0 ft.853.0 ft.
Traffic pattern: leftleft
Runway heading: 051 magnetic, 056 true231 magnetic, 236 true
Visual slope indicator: 2-box VASI on left (3.00 degrees glide path)2-box VASI on left (3.50 degrees glide path)
Obstructions: 27 ft. trees, 100 ft. left of centerline41 ft. trees, 80 ft. from runway, 125 ft. left of centerline, 1:1 slope to clear

Airport Ownership and Management from official FAA records

Ownership: Publicly-owned
Owner: CHEROKEE COUNTY AIRPORT AUTHORITY
213 W. DELAWARE ST STE 202
TAHLEQUAH, OK 74464
Phone 918-456-4121
Manager: CLIF HALL
213 W. DELAWARE ST STE 202
TAHLEQUAH, OK 74464
Phone 918-456-4121
BOARD OF COMMISSIONERS OF CHEROKEE COUNTY

Airport Operational Statistics

Aircraft based on the field: 20
Single engine airplanes: 20
    
Aircraft operations: avg 54/week *
50% transient general aviation
50% local general aviation
* for 12-month period ending 13 December 2016

Additional Remarks

DEER ON & INVOF RY.
FOR CD CTC RAZORBACK APCH 479-649-2416, WHEN APCH CLSD CTC MEMPHIS ARTCC AT 901-368-8453.

Instrument Procedures

There are no published instrument procedures at 44M.

Some nearby airports with instrument procedures:

KTQH - Tahlequah Municipal Airport (14 nm N)
KJSV - Sallisaw Municipal Airport (17 nm S)
KMKO - Muskogee-Davis Regional Airport (21 nm W)
H68 - Hefner-Easley Airport (25 nm NW)
KGZL - Stigler Regional Airport (26 nm S)
 
Loc | Ops | Rwys | IFR | FBO | Links
Com | Nav | Svcs | Stats | Notes
Area around 44M (Tenkiller Lake Airpark)
 
Road maps at: MapQuest Bing Google
 
Aerial photo
WARNING: Photo may not be current or correct
Aerial photo of 44M (Tenkiller Lake Airpark)
Photo by Valerie Westedt
Photo taken 03-Sep-2018
looking southwest.

Do you have a better or more recent aerial photo of Tenkiller Lake Airpark that you would like to share? If so, please send us your photo.

 
Sectional chart

 
Airport distance calculator
Flying to Tenkiller Lake Airpark? Find the distance to fly.

From to 44M

Sunrise and sunset
Times for 27-Oct-2020
 Local
(UTC-5)
 Zulu
(UTC)
Morning civil twilight07:1312:13
Sunrise07:3912:39
Sunset18:2823:28
Evening civil twilight18:5423:54

Current date and time
Zulu (UTC)  27-Oct-2020 09:50:35
Local (UTC-5)  27-Oct-2020 04:50:35
 
METAR
KTQH 
14nm N 
270935Z AUTO 01006KT 7SM SCT008 BKN030 OVC037 00/00 A3022 RMK AO2 P0014
KJSV 
18nm S 
270935Z AUTO 06003KT 2 1/2SM RA BKN011 OVC016 03/03 A3020 RMK AO2 P0011
KMKO 
21nm W 
270917Z AUTO 35011KT 6SM -RA BR BKN006 OVC040 01/01 A3025 RMK AO2 P0005 T00110006
KGZL 
26nm S 
270935Z AUTO 34007KT 5SM -RA CLR 03/02 A3022 RMK AO2 P0014
TAF
KFSM 
36nm SE 
270530Z 2706/2806 36007KT P6SM -RA BKN007 OVC015 TEMPO 2708/2712 P6SM -RA OVC012 FM271200 01004KT 5SM -RA BR OVC006 FM271800 03009KT 5SM -RA BR BKN008 OVC012 FM272100 04006KT P6SM OVC012 PROB30 2802/2806 4SM -DZ OVC007
KFYV 
42nm NE 
270530Z 2706/2806 04005KT P6SM -RA OVC010 TEMPO 2708/2712 4SM -RA BR OVC006 FM271200 02004KT 3SM -DZ BR OVC005 FM271600 02005KT 2SM RA BR OVC008 FM280000 03005KT 4SM BR OVC007 PROB30 2800/2806 3SM -RADZ OVC004
NOTAMs
Click for the latest NOTAMs
NOTAMs are issued by the DoD/FAA and will open in a separate window not controlled by AirNav.

 

 
 

FBO, Fuel Providers, and Aircraft Ground Support

  
 Business Name 
 
 Contact 
 
 Services / Description 
 
Fuel Prices
 
Comments
  
Tenkiller Lake Airpark 918-457-5444
no information available

If you are affiliated with Tenkiller Lake Airpark and would like to show here your services, contact info, web link, logo, and more, click here
100LL
AS $4.32 
 Updated 16-Apr-2019
 
   write
AS=Assisted/Self Service
Update Fuel Prices
 

Would you like to see your business listed on this page?

 If your business provides an interesting product or service to pilots, flight crews, aircraft, or users of the Tenkiller Lake Airpark, you should consider listing it here.  To start the listing process, click on the button below
 
Add a business
 

Other Pages about Tenkiller Lake Airpark

Update a link
 
Copyright © AirNav, LLC. All rights reserved. Privacy Policy  Contact